Погода в Осове

Россия / Рязанская область     54°30′02″N   38°49′59″E
темп.,
°C
ветер,
м/с
пор.,
м/с
влажн.,
%
обл.,
%
осадки,
мм/ч
давл.,
гПа
погр.,
м
13 мая, чт
чт1300:00+8ююв359148 0.0 1020337
03:00+6в3597100 0.0 1020105
06:00+7в3894100 0.0 1020222
09:00+12вюв5877100 0.0 1019456
12:00+15вюв5769100 0.0 1017712
15:00+16ююз786789 0.3 10171204
18:00+13юв248193 0.3 1015200
21:00+11юв3593100 0.3 101692
14 мая, пт
пт1400:00+10ююв3394100 0.0 101755
03:00+9ююв229451 0.0 101713
06:00+11ююв239394 0.0 101788
09:00+16юв4679100 0.0 1017449
12:00+20ююв687078 0.1 10161081
15:00+22юв7106791 0.1 10141392
18:00+20ююв71275100 1.2 1012644
21:00+17ю41286100 2.1 1012270
15 мая, сб
сб1500:00+15ююв339160 0.0 101232
03:00+16юз71390100 2.4 1012400
06:00+14св2293100 2.8 101028
09:00+19юв61185100 2.8 1010604
12:00+19ю71181100 1.2 1010787
15:00+21ююз69675 1.8 10101254
18:00+20ююз587619 0.4 1010876
21:00+15юз348983 0.6 101156
16 мая, вс
вс1600:00+13юз34923 0.0 101251
03:00+12ююз35934 0.0 101385
06:00+13ююз37920 0.0 1013200
09:00+17юз58768 0.0 1013777
12:00+19юз68621 0.0 10141370
15:00+20зюз46583 0.0 10141467
18:00+19юз246990 0.0 1014277
21:00+14юз11825 0.0 101511
17 мая, пн
пн1700:00+13св228524 0.0 101511
03:00+12всв349165 0.0 101554
06:00+13всв389085 0.0 1015203
09:00+19в697376 0.0 1014474
12:00+23вюв79689 0.0 1013905
15:00+25вюв696316 0.0 10121255
18:00+23юв5106851 0.0 1012368
21:00+18вюв41282100 0.0 1012217